Time,TemperatureF,DewpointF,PressureIn,WindDirection,WindDirectionDegrees,WindSpeedMPH,WindSpeedGustMPH,Humidity,HourlyPrecipIn,Conditions,Clouds,dailyrainin,SoftwareType,DateUTC
2013-03-02 00:10:00,43.4,34.0,0.00,North,360,12.0,-999.0,70,-99.99,,,0.00,weatherlink.com 1.10,2013-03-02 06:10:00,
2013-03-02 00:25:00,43.1,34.0,0.00,NNE,23,10.0,-999.0,70,-99.99,,,0.00,weatherlink.com 1.10,2013-03-02 06:25:00,
2013-03-02 00:40:00,43.1,34.0,0.00,North,5,11.0,-999.0,70,-99.99,,,0.00,weatherlink.com 1.10,2013-03-02 06:40:00,
2013-03-02 00:55:00,43.2,35.0,0.00,NNW,341,16.0,-999.0,72,-99.99,,,0.00,weatherlink.com 1.10,2013-03-02 06:55:00,
2013-03-02 01:10:00,43.5,34.0,0.00,NW,320,17.0,-999.0,68,-99.99,,,0.00,weatherlink.com 1.10,2013-03-02 07:10:00,
2013-03-02 01:25:00,43.3,33.0,0.00,NW,313,17.0,-999.0,67,-99.99,,,0.00,weatherlink.com 1.10,2013-03-02 07:25:00,
2013-03-02 01:40:00,43.1,33.0,0.00,NNW,333,16.0,-999.0,68,-99.99,,,0.00,weatherlink.com 1.10,2013-03-02 07:40:00,
2013-03-02 01:55:00,43.1,35.0,0.00,NNW,329,18.0,-999.0,72,-99.99,,,0.00,weatherlink.com 1.10,2013-03-02 07:55:00,
2013-03-02 02:10:00,42.6,33.0,0.00,NNW,336,18.0,-999.0,68,-99.99,,,0.00,weatherlink.com 1.10,2013-03-02 08:10:00,
2013-03-02 02:25:00,42.3,34.0,0.00,NNW,336,16.0,-999.0,71,-99.99,,,0.00,weatherlink.com 1.10,2013-03-02 08:25:00,
2013-03-02 02:40:00,42.0,34.0,0.00,North,355,12.0,-999.0,72,-99.99,,,0.00,weatherlink.com 1.10,2013-03-02 08:40:00,
2013-03-02 02:55:00,41.4,32.0,0.00,North,360,12.0,-999.0,70,-99.99,,,0.00,weatherlink.com 1.10,2013-03-02 08:55:00,
2013-03-02 03:10:00,41.9,34.0,0.00,NNW,338,15.0,-999.0,73,-99.99,,,0.00,weatherlink.com 1.10,2013-03-02 09:10:00,
2013-03-02 03:25:00,41.6,33.0,0.00,NNW,342,18.0,-999.0,72,-99.99,,,0.00,weatherlink.com 1.10,2013-03-02 09:25:00,
2013-03-02 03:40:00,41.8,35.0,26.34,NNW,334,16.0,-999.0,76,-99.99,,,0.00,weatherlink.com 1.10,2013-03-02 09:40:00,
2013-03-02 03:55:00,41.5,34.0,26.34,NNW,340,19.0,-999.0,74,-99.99,,,0.00,weatherlink.com 1.10,2013-03-02 09:55:00,
2013-03-02 04:10:00,40.6,33.0,26.34,North,350,13.0,-999.0,75,-99.99,,,0.00,weatherlink.com 1.10,2013-03-02 10:10:00,
2013-03-02 04:25:00,40.1,32.0,26.34,NNE,13,10.0,-999.0,74,-99.99,,,0.00,weatherlink.com 1.10,2013-03-02 10:25:00,
2013-03-02 04:40:00,39.3,33.0,26.34,NNE,20,10.0,-999.0,77,-99.99,,,0.00,weatherlink.com 1.10,2013-03-02 10:40:00,
2013-03-02 04:55:00,39.1,32.0,26.34,North,5,12.0,-999.0,77,-99.99,,,0.00,weatherlink.com 1.10,2013-03-02 10:55:00,
2013-03-02 05:10:00,38.9,32.0,26.34,North,5,12.0,-999.0,76,-99.99,,,0.00,weatherlink.com 1.10,2013-03-02 11:10:00,
2013-03-02 05:25:00,39.1,31.0,26.34,NNE,12,8.0,-999.0,74,-99.99,,,0.00,weatherlink.com 1.10,2013-03-02 11:25:00,
2013-03-02 05:40:00,38.8,31.0,26.34,NNE,30,4.0,-999.0,74,-99.99,,,0.00,weatherlink.com 1.10,2013-03-02 11:40:00,
2013-03-02 05:56:00,38.3,31.0,26.34,NNE,23,5.0,-999.0,75,-99.99,,,0.00,weatherlink.com 1.10,2013-03-02 11:56:00,
2013-03-02 06:11:00,38.3,31.0,26.34,NNE,24,6.0,-999.0,76,-99.99,,,0.00,weatherlink.com 1.10,2013-03-02 12:11:00,
2013-03-02 06:26:00,38.2,31.0,26.53,NNW,348,11.0,-999.0,76,-99.99,,,0.00,weatherlink.com 1.10,2013-03-02 12:26:00,
2013-03-02 06:42:00,38.5,32.0,26.53,North,11,6.0,-999.0,77,-99.99,,,0.00,weatherlink.com 1.10,2013-03-02 12:42:00,
2013-03-02 06:56:00,38.6,32.0,26.53,North,360,11.0,-999.0,77,-99.99,,,0.00,weatherlink.com 1.10,2013-03-02 12:56:00,
2013-03-02 07:11:00,38.7,32.0,26.53,NNE,16,8.0,-999.0,78,-99.99,,,0.00,weatherlink.com 1.10,2013-03-02 13:11:00,
2013-03-02 07:26:00,38.5,32.0,26.53,North,360,10.0,-999.0,77,-99.99,,,0.00,weatherlink.com 1.10,2013-03-02 13:26:00,
2013-03-02 07:41:00,38.5,32.0,26.53,NNE,17,9.0,-999.0,77,-99.99,,,0.00,weatherlink.com 1.10,2013-03-02 13:41:00,
2013-03-02 07:56:00,38.8,32.0,26.53,NNE,14,9.0,-999.0,76,-99.99,,,0.00,weatherlink.com 1.10,2013-03-02 13:56:00,
2013-03-02 08:11:00,39.1,32.0,23.71,North,5,14.0,-999.0,75,-99.99,,,0.00,weatherlink.com 1.10,2013-03-02 14:11:00,
2013-03-02 08:26:00,39.5,33.0,23.71,NNW,346,11.0,-999.0,76,-99.99,,,0.00,weatherlink.com 1.10,2013-03-02 14:26:00,
2013-03-02 08:41:00,39.9,33.0,23.71,NNW,342,14.0,-999.0,75,-99.99,,,0.00,weatherlink.com 1.10,2013-03-02 14:41:00,
2013-03-02 08:56:00,40.4,33.0,23.71,NNW,347,13.0,-999.0,74,-99.99,,,0.00,weatherlink.com 1.10,2013-03-02 14:56:00,
2013-03-02 09:11:00,41.0,33.0,23.71,North,355,16.0,-999.0,72,-99.99,,,0.00,weatherlink.com 1.10,2013-03-02 15:11:00,
2013-03-02 09:26:00,41.3,32.0,23.71,NNW,346,13.0,-999.0,70,-99.99,,,0.00,weatherlink.com 1.10,2013-03-02 15:26:00,
2013-03-02 09:41:00,41.6,32.0,23.71,NNW,334,16.0,-999.0,70,-99.99,,,0.00,weatherlink.com 1.10,2013-03-02 15:41:00,
2013-03-02 09:56:00,42.2,33.0,23.71,NW,319,15.0,-999.0,70,-99.99,,,0.00,weatherlink.com 1.10,2013-03-02 15:56:00,
2013-03-02 10:11:00,42.6,33.0,23.71,NNW,329,16.0,-999.0,70,-99.99,,,0.00,weatherlink.com 1.10,2013-03-02 16:11:00,
2013-03-02 10:26:00,42.7,32.0,23.71,North,350,16.0,-999.0,67,-99.99,,,0.00,weatherlink.com 1.10,2013-03-02 16:26:00,
2013-03-02 10:41:00,43.2,33.0,23.71,NNW,337,19.0,-999.0,68,-99.99,,,0.00,weatherlink.com 1.10,2013-03-02 16:41:00,
2013-03-02 10:56:00,43.7,33.0,23.71,NNW,345,15.0,-999.0,66,-99.99,,,0.00,weatherlink.com 1.10,2013-03-02 16:56:00,
2013-03-02 11:11:00,44.2,33.0,23.71,NNW,334,18.0,-999.0,65,-99.99,,,0.00,weatherlink.com 1.10,2013-03-02 17:11:00,
2013-03-02 11:26:00,44.6,33.0,23.71,NNW,333,19.0,-999.0,64,-99.99,,,0.00,weatherlink.com 1.10,2013-03-02 17:26:00,
2013-03-02 11:41:00,44.6,35.0,23.71,NNW,348,15.0,-999.0,69,-99.99,,,0.00,weatherlink.com 1.10,2013-03-02 17:41:00,
2013-03-02 11:56:00,45.2,34.0,23.71,NNW,327,15.0,-999.0,64,-99.99,,,0.00,weatherlink.com 1.10,2013-03-02 17:56:00,
2013-03-02 12:11:00,45.2,34.0,23.71,NNW,332,15.0,-999.0,65,-99.99,,,0.00,weatherlink.com 1.10,2013-03-02 18:11:00,
2013-03-02 12:26:00,45.7,34.0,23.71,NW,309,17.0,-999.0,64,-99.99,,,0.00,weatherlink.com 1.10,2013-03-02 18:26:00,
2013-03-02 12:41:00,46.2,35.0,23.71,NNW,333,15.0,-999.0,66,-99.99,,,0.00,weatherlink.com 1.10,2013-03-02 18:41:00,
2013-03-02 12:56:00,45.8,35.0,23.71,NNW,327,14.0,-999.0,66,-99.99,,,0.00,weatherlink.com 1.10,2013-03-02 18:56:00,
2013-03-02 13:11:00,45.8,35.0,23.71,NNW,333,17.0,-999.0,65,-99.99,,,0.00,weatherlink.com 1.10,2013-03-02 19:11:00,
2013-03-02 13:26:00,45.8,34.0,23.71,NNW,338,20.0,-999.0,63,-99.99,,,0.00,weatherlink.com 1.10,2013-03-02 19:26:00,
2013-03-02 13:41:00,45.8,35.0,23.71,NNW,335,20.0,-999.0,66,-99.99,,,0.00,weatherlink.com 1.10,2013-03-02 19:41:00,
2013-03-02 13:56:00,45.6,33.0,23.71,NNW,331,22.0,-999.0,62,-99.99,,,0.00,weatherlink.com 1.10,2013-03-02 19:56:00,
2013-03-02 14:11:00,45.2,33.0,23.71,NW,323,20.0,-999.0,63,-99.99,,,0.00,weatherlink.com 1.10,2013-03-02 20:11:00,
2013-03-02 14:26:00,45.1,33.0,28.23,NNW,339,21.0,-999.0,63,-99.99,,,0.00,weatherlink.com 1.10,2013-03-02 20:26:00,
2013-03-02 14:41:00,45.2,32.0,28.23,NNW,331,22.0,-999.0,60,-99.99,,,0.00,weatherlink.com 1.10,2013-03-02 20:41:00,
2013-03-02 14:56:00,45.2,34.0,28.23,NW,319,19.0,-999.0,65,-99.99,,,0.00,weatherlink.com 1.10,2013-03-02 20:56:00,
2013-03-02 15:11:00,45.1,33.0,28.23,NW,325,19.0,-999.0,62,-99.99,,,0.00,weatherlink.com 1.10,2013-03-02 21:11:00,
2013-03-02 15:27:00,44.9,33.0,28.23,NNW,329,22.0,-999.0,63,-99.99,,,0.00,weatherlink.com 1.10,2013-03-02 21:27:00,
2013-03-02 15:40:00,44.6,34.0,28.23,NNW,346,20.0,-999.0,66,-99.99,,,0.00,weatherlink.com 1.10,2013-03-02 21:40:00,
2013-03-02 15:56:00,44.5,32.0,28.23,NNW,330,21.0,-999.0,63,-99.99,,,0.00,weatherlink.com 1.10,2013-03-02 21:56:00,
2013-03-02 16:11:00,44.5,34.0,28.23,NNW,341,17.0,-999.0,68,-99.99,,,0.00,weatherlink.com 1.10,2013-03-02 22:11:00,
2013-03-02 16:25:00,44.3,34.0,28.23,NNW,345,19.0,-999.0,68,-99.99,,,0.00,weatherlink.com 1.10,2013-03-02 22:25:00,
2013-03-02 16:41:00,44.1,33.0,28.23,NNW,346,18.0,-999.0,66,-99.99,,,0.00,weatherlink.com 1.10,2013-03-02 22:41:00,
2013-03-02 16:56:00,44.0,34.0,28.23,NNW,327,18.0,-999.0,67,-99.99,,,0.00,weatherlink.com 1.10,2013-03-02 22:56:00,
2013-03-02 17:11:00,43.8,33.0,28.23,NNW,338,20.0,-999.0,66,-99.99,,,0.00,weatherlink.com 1.10,2013-03-02 23:11:00,
2013-03-02 17:26:00,43.4,33.0,0.00,NNW,344,25.0,-999.0,66,-99.99,,,0.00,weatherlink.com 1.10,2013-03-02 23:26:00,
2013-03-02 17:41:00,43.2,31.0,0.00,North,5,15.0,-999.0,63,-99.99,,,0.00,weatherlink.com 1.10,2013-03-02 23:41:00,
2013-03-02 17:56:00,42.8,32.0,0.00,North,350,16.0,-999.0,65,-99.99,,,0.00,weatherlink.com 1.10,2013-03-02 23:56:00,
2013-03-02 18:11:00,42.4,30.0,0.00,NNE,29,11.0,-999.0,62,-99.99,,,0.00,weatherlink.com 1.10,2013-03-03 00:11:00,
2013-03-02 18:41:00,42.8,32.0,0.00,NNW,334,21.0,-999.0,65,-99.99,,,0.00,weatherlink.com 1.10,2013-03-03 00:41:00,
2013-03-02 18:56:00,42.3,31.0,0.00,NNW,348,23.0,-999.0,65,-99.99,,,0.00,weatherlink.com 1.10,2013-03-03 00:56:00,
2013-03-02 19:11:00,42.5,32.0,0.00,NNW,327,22.0,-999.0,67,-99.99,,,0.00,weatherlink.com 1.10,2013-03-03 01:11:00,
2013-03-02 19:26:00,42.3,32.0,0.00,North,355,15.0,-999.0,66,-99.99,,,0.00,weatherlink.com 1.10,2013-03-03 01:26:00,
2013-03-02 19:41:00,42.5,33.0,0.00,NNW,334,26.0,-999.0,69,-99.99,,,0.00,weatherlink.com 1.10,2013-03-03 01:41:00,
2013-03-02 19:56:00,41.8,32.0,0.00,North,5,18.0,-999.0,67,-99.99,,,0.00,weatherlink.com 1.10,2013-03-03 01:56:00,
2013-03-02 20:11:00,41.9,32.0,0.00,North,355,14.0,-999.0,67,-99.99,,,0.00,weatherlink.com 1.10,2013-03-03 02:11:00,
2013-03-02 20:26:00,41.8,32.0,0.00,NNW,342,23.0,-999.0,67,-99.99,,,0.00,weatherlink.com 1.10,2013-03-03 02:26:00,
2013-03-02 20:41:00,41.5,32.0,0.00,North,5,13.0,-999.0,70,-99.99,,,0.00,weatherlink.com 1.10,2013-03-03 02:41:00,
2013-03-02 20:56:00,41.1,32.0,0.00,NNE,30,7.0,-999.0,69,-99.99,,,0.00,weatherlink.com 1.10,2013-03-03 02:56:00,
2013-03-02 21:11:00,40.9,31.0,0.00,NNW,344,15.0,-999.0,69,-99.99,,,0.00,weatherlink.com 1.10,2013-03-03 03:11:00,
2013-03-02 21:26:00,41.1,32.0,20.82,NNW,340,11.0,-999.0,69,-99.99,,,0.00,weatherlink.com 1.10,2013-03-03 03:26:00,
2013-03-02 21:41:00,41.5,32.0,20.82,North,351,19.0,-999.0,68,-99.99,,,0.00,weatherlink.com 1.10,2013-03-03 03:41:00,
2013-03-02 21:56:00,41.5,32.0,20.32,NW,323,18.0,-999.0,69,-99.99,,,0.00,weatherlink.com 1.10,2013-03-03 03:56:00,
2013-03-02 22:11:00,41.3,32.0,20.32,NNW,346,26.0,-999.0,69,-99.99,,,0.00,weatherlink.com 1.10,2013-03-03 04:11:00,
2013-03-02 22:26:00,41.0,32.0,20.32,NNW,338,23.0,-999.0,70,-99.99,,,0.00,weatherlink.com 1.10,2013-03-03 04:26:00,
2013-03-02 22:41:00,40.9,32.0,22.76,NNW,347,20.0,-999.0,71,-99.99,,,0.00,weatherlink.com 1.10,2013-03-03 04:41:00,
2013-03-02 22:56:00,40.9,32.0,22.76,NNW,336,22.0,-999.0,70,-99.99,,,0.00,weatherlink.com 1.10,2013-03-03 04:56:00,
2013-03-02 23:11:00,40.5,30.0,22.76,NNW,329,21.0,-999.0,66,-99.99,,,0.00,weatherlink.com 1.10,2013-03-03 05:11:00,
2013-03-02 23:26:00,40.6,30.0,22.76,NNW,331,23.0,-999.0,67,-99.99,,,0.00,weatherlink.com 1.10,2013-03-03 05:26:00,
2013-03-02 23:41:00,40.6,31.0,22.76,NNW,337,19.0,-999.0,68,-99.99,,,0.00,weatherlink.com 1.10,2013-03-03 05:41:00,
2013-03-02 23:56:00,40.1,29.0,23.11,NW,325,21.0,-999.0,66,-99.99,,,0.00,weatherlink.com 1.10,2013-03-03 05:56:00,